Roros Lufthavn, Norway

1:06 PM CET on December 12, 2019 (GMT +0100)
Roros

Weather History for ENRO - October, 2019

Change the Weather History Date:

Monday, October 7, 2019

  Actual Average Record
Temperature  
Mean Temperature 30 °F -  
Max Temperature 37 °F 43 °F 57 °F (1996)
Min Temperature 24 °F 34 °F 14 °F (2002)
Degree Days  
Heating Degree Days 34    
Moisture  
Dew Point 27 °F    
Average Humidity 86    
Maximum Humidity 100    
Minimum Humidity 70    
Precipitation  
Precipitation 0.00 in - - ()
Sea Level Pressure  
Sea Level Pressure 30.05 in    
Wind  
Wind Speed 5 mph ()    
Max Wind Speed 10 mph    
Max Gust Speed -    
Visibility 6.2 miles    
Events      
Averages and records for this station are not official NWS values.
T = Trace of Precipitation, MM = Missing Value Source: Averaged Metar Reports

Daily Weather History Graph

Daily Weather History Graph

Search for Another Location

Airport or City:

Astronomy

Oct. 07, 2019 Rise Set
Actual Time 7:37 AM CEST 6:26 PM CEST
Civil Twilight 6:51 AM CEST 7:11 PM CEST
Nautical Twilight 5:59 AM CEST 8:03 PM CEST
Astronomical Twilight 5:04 AM CEST 8:58 PM CEST
Moon 5:54 PM CEST (10/7) 11:57 PM CEST (10/7)
Length of Visible Light 12h 19m
Length of Day
10h 49m
Waxing Gibbous, 66% of the Moon is Illuminated
Oct 7
Waxing Gibbous
Oct 13
Full
Oct 21
Last Quarter
Oct 28
New
Nov 4
First Quarter

Hourly Weather History & Observations

Time (CEST) Temp. Windchill Dew Point Humidity Pressure Visibility Wind Dir Wind Speed Gust Speed Precip Events Conditions
12:50 AM 28.4 °F 21.2 °F 24.8 °F 86% 30.18 in 6.2 mi SSW 6.9 mph - N/A   Overcast
1:20 AM 28.4 °F 21.2 °F 24.8 °F 86% 30.18 in 6.2 mi SW 6.9 mph - N/A   Overcast
1:50 AM 26.6 °F 19.1 °F 24.8 °F 93% 30.15 in 6.2 mi SW 6.9 mph - N/A   Overcast
2:20 AM 28.4 °F 23.3 °F 26.6 °F 93% 30.15 in 6.2 mi SW 4.6 mph - N/A   Overcast
2:50 AM 28.4 °F 24.6 °F 26.6 °F 93% 30.15 in 6.2 mi SSW 3.5 mph - N/A   Overcast
3:20 AM 28.4 °F - 26.6 °F 93% 30.15 in 6.2 mi Variable 2.3 mph - N/A   Mostly Cloudy
4:20 AM 26.6 °F 19.1 °F 24.8 °F 93% 30.15 in 6.2 mi SSW 6.9 mph - N/A   Mostly Cloudy
4:50 AM 26.6 °F 20.0 °F 26.6 °F 100% 30.12 in 6.2 mi SSW 5.8 mph - N/A   Overcast
5:20 AM 26.6 °F - 26.6 °F 100% 30.12 in 6.2 mi Variable 2.3 mph - N/A   Overcast
5:50 AM 26.6 °F - 26.6 °F 100% 30.12 in 6.2 mi Variable 2.3 mph - N/A   Overcast
6:20 AM 26.6 °F - 26.6 °F 100% 30.12 in 6.2 mi Variable 1.2 mph - N/A   Mostly Cloudy
6:50 AM 26.6 °F 19.1 °F 26.6 °F 100% 30.09 in 6.2 mi SW 6.9 mph - N/A   Mostly Cloudy
7:50 AM 24.8 °F 17.9 °F 24.8 °F 100% 30.09 in 6.2 mi South 5.8 mph - N/A   Mostly Cloudy
8:20 AM 24.8 °F 14.6 °F 24.8 °F 100% 30.09 in 6.2 mi SW 10.4 mph - N/A   Mostly Cloudy
8:50 AM 26.6 °F 17.5 °F 24.8 °F 93% 30.09 in 6.2 mi SW 9.2 mph - N/A   Mostly Cloudy
9:20 AM 26.6 °F 18.2 °F 24.8 °F 93% 30.09 in 6.2 mi SW 8.1 mph - N/A   Overcast
9:50 AM 28.4 °F 20.4 °F 26.6 °F 93% 30.09 in 6.2 mi SW 8.1 mph - N/A   Mostly Cloudy
10:20 AM 30.2 °F 24.3 °F 26.6 °F 86% 30.06 in 6.2 mi SSW 5.8 mph - N/A   Mostly Cloudy
10:50 AM 30.2 °F 23.4 °F 26.6 °F 86% 30.06 in 6.2 mi SSW 6.9 mph - N/A   Mostly Cloudy
11:20 AM 32.0 °F 24.8 °F 26.6 °F 80% 30.06 in 6.2 mi SW 8.1 mph - N/A   Mostly Cloudy
11:50 AM 32.0 °F 26.4 °F 28.4 °F 87% 30.06 in 6.2 mi SSW 5.8 mph - N/A   Overcast
12:20 PM 33.8 °F 28.6 °F 28.4 °F 81% 30.04 in 6.2 mi East 5.8 mph - N/A   Overcast
12:50 PM 35.6 °F 32.8 °F 26.6 °F 70% 30.04 in 6.2 mi Variable 3.5 mph - N/A   Mostly Cloudy
1:20 PM 35.6 °F 32.8 °F 26.6 °F 70% 30.04 in 6.2 mi Variable 3.5 mph - N/A   Mostly Cloudy
1:50 PM 35.6 °F 29.9 °F 28.4 °F 75% 30.01 in 6.2 mi East 6.9 mph - N/A   Mostly Cloudy
2:20 PM 35.6 °F 29.9 °F 28.4 °F 75% 30.01 in 6.2 mi South 6.9 mph - N/A   Mostly Cloudy
2:50 PM 37.4 °F 32.8 °F 28.4 °F 70% 29.98 in 6.2 mi SE 5.8 mph - N/A   Partly Cloudy
3:20 PM 37.4 °F 32.1 °F 28.4 °F 70% 29.95 in - ESE 6.9 mph - N/A   Clear
3:50 PM 37.4 °F 30.8 °F 28.4 °F 70% 29.95 in - ESE 9.2 mph - N/A   Clear
4:20 PM 37.4 °F 31.4 °F 28.4 °F 70% 29.92 in - ESE 8.1 mph - N/A   Clear
4:50 PM 35.6 °F 30.7 °F 28.4 °F 75% 29.89 in - SE 5.8 mph - N/A   Clear
5:20 PM 35.6 °F 30.7 °F 26.6 °F 70% 29.89 in - SE 5.8 mph - N/A   Clear
5:50 PM 32.0 °F 26.4 °F 26.6 °F 80% 29.89 in - SE 5.8 mph - N/A   Clear
6:20 PM 32.0 °F 27.5 °F 26.6 °F 80% 29.89 in - SE 4.6 mph - N/A   Clear
6:50 PM 30.2 °F - 26.6 °F 86% 29.89 in - Variable 1.2 mph - N/A   Clear
7:20 PM 26.6 °F - 24.8 °F 93% 29.89 in - Variable 2.3 mph - N/A   Clear